QPF
0.00 0.00 0.00 0.00 0.00 0.00 0.00 0.00 0.00 0.00 0.00 0.00 0.00 0.00 0.00 0.00 0.00 0.00 0.00 0.00 0.00 0.00 0.00 0.00 0.00 0.00 0.00 0.00 0.00 0.00 0.00 0.00 0.00 0.00 0.00 0.00 0.00 0.00 0.00 0.00 0.00 0.00 0.00 0.00 0.00
0.00 0.00 0.00 0.00 0.00 0.00 0.00 0.00 0.00 0.00 0.00 0.00 0.00 0.00 0.00 0.00 0.00 0.00 0.00 0.00 0.00 0.00 0.00 0.00 0.00 0.00 0.00 0.00 0.00 0.00 0.00 0.00 0.00 0.00 0.00 0.00 0.00 0.00 0.00 0.00 0.00 0.00 0.00 0.00 0.00
0.00 0.00 0.00 0.00 0.00 0.00 0.00 0.00 0.00 0.00 0.00 0.00 0.00 0.00 0.00 0.00 0.00 0.00 0.00 0.00 0.00 0.00 0.00 0.00 0.00 0.00 0.00 0.00 0.00 0.00 0.00 0.00 0.00 0.00 0.00 0.00 0.00 0.00 0.00 0.00 0.00 0.00 0.00 0.00 0.00
0.00 0.00 0.00 0.00 0.00 0.00 0.00 0.00 0.00 0.00 0.00 0.00 0.00 0.00 0.00 0.00 0.00 0.00 0.00 0.00 0.00 0.00 0.00 0.00 0.00 0.00 0.00 0.00 0.00 0.00 0.00 0.00 0.00 0.00 0.00 0.00 0.00 0.00 0.00 0.00 0.00 0.00 0.00 0.00 0.00
0.00 0.00 0.00 0.00 0.00 0.00 0.00 0.00 0.00 0.00 0.00 0.00 0.00 0.00 0.00 0.00 0.00 0.00 0.00 0.00 0.00 0.00 0.00 0.00 0.00 0.00 0.00 0.00 0.00 0.00 0.00 0.00 0.00 0.00 0.00 0.00 0.00 0.00 0.00 0.00 0.00 0.00 0.00 0.00 0.00
0.00 0.00 0.00 0.00 0.00 0.00 0.00 0.00 0.00 0.00 0.00 0.00 0.00 0.00 0.00 0.00 0.00 0.00 0.00 0.00 0.00 0.00 0.00 0.00 0.00 0.00 0.00 0.00 0.00 0.00 0.00 0.00 0.00 0.00 0.00 0.00 0.00 0.00 0.00 0.00 0.00 0.00 0.00 0.00 0.00
0.00 0.00 0.00 0.00 0.00 0.00 0.00 0.00 0.00 0.00 0.00 0.00 0.00 0.00 0.00 0.00 0.00 0.00 0.00 0.00 0.00 0.00 0.00 0.00 0.00 0.00 0.00 0.00 0.00 0.00 0.00 0.00 0.00 0.00 0.00 0.00 0.00 0.00 0.00 0.00 0.00 0.00 0.00 0.00 0.00
0.00 0.00 0.00 0.00 0.00 0.00 0.00 0.00 0.00 0.00 0.00 0.00 0.00 0.00 0.00 0.00 0.00 0.00 0.00 0.00 0.00 0.00 0.00 0.00 0.00 0.00 0.00 0.00 0.00 0.00 0.00 0.00 0.00 0.00 0.00 0.00 0.00 0.00 0.00 0.00 0.00 0.00 0.00 0.00 0.00
0.00 0.00 0.00 0.00 0.00 0.00 0.00 0.00 0.00 0.00 0.00 0.00 0.00 0.00 0.00 0.00 0.00 0.00 0.00 0.00 0.00 0.00 0.00 0.00 0.00 0.00 0.00 0.00 0.00 0.00 0.00 0.00 0.00 0.00 0.00 0.00 0.00 0.00 0.00 0.00 0.00 0.00 0.00 0.00 0.00
0.00 0.00 0.00 0.00 0.00 0.00 0.00 0.00 0.00 0.00 0.00 0.00 0.00 0.00 0.00 0.00 0.00 0.00 0.00 0.00 0.00 0.00 0.00 0.00 0.00 0.00 0.00 0.00 0.00 0.00 0.00 0.00 0.00 0.00 0.00 0.00 0.00 0.00 0.00 0.00 0.00 0.00 0.00 0.00 0.00
0.00 0.00 0.00 0.00 0.00 0.00 0.00 0.00 0.00 0.00 0.00 0.00 0.00 0.00 0.00 0.00 0.00 0.00 0.00 0.00 0.00 0.00 0.00 0.00 0.00 0.00 0.00 0.00 0.00 0.00 0.00 0.00 0.00 0.00 0.00 0.00 0.00 0.00 0.00 0.00 0.00 0.00 0.00 0.00 0.00
0.00 0.00 0.00 0.00 0.00 0.00 0.00 0.00 0.00 0.00 0.00 0.00 0.00 0.00 0.00 0.00 0.00 0.00 0.00 0.00 0.00 0.00 0.00 0.00 0.00 0.00 0.00 0.00 0.00 0.00 0.00 0.00 0.00 0.00 0.00 0.00 0.00 0.00 0.00 0.00 0.00 0.00 0.00 0.00 0.00
0.00 0.00 0.00 0.00 0.00 0.00 0.00 0.00 0.00 0.00 0.00 0.00 0.00 0.00 0.00 0.00 0.00 0.00 0.00 0.00 0.00 0.00 0.00 0.00 0.00 0.00 0.00 0.00 0.00 0.00 0.00 0.00 0.00 0.00 0.00 0.00 0.00 0.00 0.00 0.00 0.00 0.00 0.00 0.00 0.00
0.00 0.00 0.00 0.00 0.00 0.00 0.00 0.00 0.00 0.00 0.00 0.00 0.00 0.00 0.00 0.00 0.00 0.00 0.00 0.00 0.00 0.00 0.00 0.00 0.00 0.00 0.00 0.00 0.00 0.00 0.00 0.00 0.00 0.00 0.00 0.00 0.00 0.00 0.00 0.00 0.00 0.00 0.00 0.00 0.00
0.00 0.00 0.00 0.00 0.00 0.00 0.00 0.00 0.00 0.00 0.00 0.00 0.00 0.00 0.00 0.00 0.00 0.00 0.00 0.00 0.00 0.00 0.00 0.00 0.00 0.00 0.00 0.00 0.00 0.00 0.00 0.00 0.00 0.00 0.00 0.00 0.00 0.00 0.00 0.00 0.00 0.00 0.00 0.00 0.00
0.00 0.00 0.00 0.00 0.00 0.00 0.00 0.00 0.00 0.00 0.00 0.00 0.00 0.00 0.00 0.00 0.00 0.00 0.00 0.00 0.00 0.00 0.00 0.00 0.00 0.00 0.00 0.00 0.00 0.00 0.00 0.00 0.00 0.00 0.00 0.00 0.00 0.00 0.00 0.00 0.00 0.00 0.00 0.00 0.00
0.00 0.00 0.00 0.00 0.00 0.00 0.00 0.00 0.00 0.00 0.00 0.00 0.00 0.00 0.00 0.00 0.00 0.00 0.00 0.00 0.00 0.00 0.00 0.00 0.00 0.00 0.00 0.00 0.00 0.00 0.00 0.00 0.00 0.00 0.00 0.00 0.00 0.00 0.00 0.00 0.00 0.00 0.00 0.00 0.00
0.00 0.00 0.00 0.00 0.00 0.00 0.00 0.00 0.00 0.00 0.00 0.00 0.00 0.00 0.00 0.00 0.00 0.00 0.00 0.00 0.00 0.00 0.00 0.00 0.00 0.00 0.00 0.00 0.00 0.00 0.00 0.00 0.00 0.00 0.00 0.00 0.00 0.00 0.00 0.00 0.00 0.00 0.00 0.00 0.00
0.00 0.00 0.00 0.00 0.00 0.00 0.00 0.00 0.00 0.00 0.00 0.00 0.00 0.00 0.00 0.00 0.00 0.00 0.00 0.00 0.00 0.00 0.00 0.00 0.00 0.00 0.00 0.00 0.00 0.00 0.00 0.00 0.00 0.00 0.00 0.00 0.00 0.00 0.00 0.00 0.00 0.00 0.00 0.00 0.00
0.00 0.00 0.00 0.00 0.00 0.00 0.00 0.00 0.00 0.00 0.00 0.00 0.00 0.00 0.00 0.00 0.00 0.00 0.00 0.00 0.00 0.00 0.00 0.00 0.00 0.00 0.00 0.00 0.00 0.00 0.00 0.00 0.00 0.00 0.00 0.00 0.00 0.00 0.00 0.00 0.00 0.00 0.00 0.00 0.00
0.00 0.00 0.00 0.00 0.00 0.00 0.00 0.00 0.00 0.00 0.00 0.00 0.00 0.00 0.00 0.00 0.00 0.00 0.00 0.00 0.00 0.00 0.00 0.00 0.00 0.00 0.00 0.00 0.00 0.00 0.00 0.00 0.00 0.00 0.01 0.00 0.00 0.00 0.00 0.00 0.00 0.00 0.00 0.00 0.00
0.00 0.00 0.00 0.00 0.00 0.00 0.00 0.00 0.00 0.00 0.00 0.00 0.00 0.00 0.00 0.00 0.00 0.00 0.00 0.00 0.00 0.00 0.00 0.00 0.00 0.00 0.00 0.00 0.00 0.00 0.00 0.00 0.01 0.02 0.01 0.02 0.01 0.00 0.00 0.00 0.00 0.00 0.00 0.00 0.00
0.00 0.00 0.00 0.00 0.00 0.00 0.00 0.00 0.00 0.00 0.00 0.00 0.00 0.00 0.00 0.00 0.00 0.00 0.00 0.00 0.00 0.00 0.00 0.00 0.01 0.01 0.00 0.00 0.00 0.00 0.00 0.00 0.01 0.01 0.01 0.02 0.01 0.00 0.00 0.00 0.00 0.00 0.00 0.00 0.00
0.00 0.00 0.00 0.00 0.00 0.00 0.00 0.00 0.00 0.00 0.00 0.00 0.00 0.00 0.00 0.00 0.00 0.00 0.00 0.00 0.00 0.00 0.00 0.00 0.01 0.01 0.01 0.00 0.01 0.00 0.00 0.00 0.01 0.00 0.01 0.02 0.00 0.00 0.00 0.00 0.00 0.00 0.00 0.00 0.00
0.00 0.00 0.00 0.00 0.00 0.00 0.00 0.00 0.00 0.00 0.00 0.00 0.00 0.00 0.00 0.00 0.00 0.00 0.00 0.00 0.00 0.00 0.00 0.01 0.00 0.00 0.00 0.00 0.01 0.01 0.00 0.00 0.01 0.01 0.01 0.00 0.00 0.00 0.00 0.00 0.00 0.00 0.00 0.00 0.00
0.00 0.00 0.00 0.00 0.00 0.00 0.00 0.00 0.00 0.00 0.00 0.00 0.00 0.00 0.00 0.00 0.00 0.00 0.00 0.00 0.00 0.00 0.00 0.02 0.01 0.01 0.00 0.00 0.00 0.00 0.00 0.00 0.00 0.00 0.00 0.00 0.00 0.00 0.00 0.00 0.00 0.00 0.00 0.00 0.00
0.00 0.00 0.00 0.00 0.00 0.00 0.00 0.00 0.00 0.00 0.00 0.00 0.00 0.00 0.00 0.00 0.00 0.00 0.00 0.00 0.00 0.01 0.01 0.02 0.01 0.01 0.00 0.00 0.00 0.00 0.00 0.00 0.00 0.00 0.00 0.00 0.00 0.00 0.00 0.00 0.00 0.00 0.00 0.00 0.00
MSLP
1018.12 1017.81 1017.53 1017.35 1017.20 1017.00 1016.80 1016.69 1016.61 1016.55 1016.50 1016.33 1016.15 1015.87 1015.73 1015.35 1014.81 1014.02 1012.05 1010.80 1010.63 1011.08 1011.30 1010.58 1010.11 1009.69 1009.41 1008.65 1008.58 1008.25 1006.87 1005.80 1005.74 1005.85 1005.35 1006.03 1005.80 1006.13 1006.51 1005.94 1005.55 1005.19 1004.85 1004.87 1005.11
1017.92 1017.58 1017.26 1017.02 1016.87 1016.69 1016.58 1016.45 1016.41 1016.35 1016.27 1016.14 1015.94 1015.81 1015.48 1015.11 1013.81 1011.88 1010.27 1010.79 1010.94 1011.01 1010.52 1009.75 1009.20 1009.12 1008.44 1008.19 1008.15 1007.55 1006.38 1005.39 1005.72 1006.10 1006.08 1006.40 1006.77 1006.50 1006.65 1005.65 1005.36 1005.24 1004.93 1004.77 1004.85
1017.73 1017.38 1017.09 1016.82 1016.59 1016.45 1016.33 1016.22 1016.05 1015.89 1015.70 1015.67 1015.69 1015.53 1015.33 1014.94 1012.64 1008.97 1009.91 1010.61 1010.71 1010.79 1009.79 1009.38 1008.88 1008.48 1007.77 1007.74 1007.55 1007.15 1006.15 1005.69 1006.65 1006.77 1006.76 1006.57 1006.81 1006.54 1006.61 1005.64 1005.10 1005.25 1004.95 1004.92 1004.85
1017.67 1017.23 1016.92 1016.68 1016.44 1016.24 1016.11 1016.00 1015.99 1015.93 1015.83 1015.71 1015.58 1015.40 1015.11 1014.06 1010.35 1009.07 1009.90 1010.49 1010.88 1010.33 1009.71 1009.10 1008.65 1008.13 1007.35 1007.32 1007.19 1007.09 1006.65 1006.50 1006.47 1006.72 1006.84 1006.63 1006.45 1006.20 1006.00 1005.92 1005.57 1005.69 1005.57 1005.32 1004.93
1017.64 1017.19 1016.81 1016.47 1016.31 1016.10 1015.97 1015.86 1015.83 1015.83 1015.73 1015.54 1015.32 1015.14 1014.46 1012.17 1009.21 1009.30 1009.97 1010.43 1010.44 1009.98 1009.23 1008.63 1008.15 1007.46 1006.96 1006.90 1007.32 1007.14 1006.35 1006.81 1006.82 1006.88 1006.65 1006.63 1006.34 1006.05 1005.87 1005.65 1005.49 1005.39 1005.59 1005.23 1005.17
1017.55 1017.09 1016.72 1016.33 1016.05 1015.83 1015.67 1015.50 1015.45 1015.41 1015.40 1015.22 1015.09 1015.00 1013.40 1010.48 1009.10 1009.29 1009.42 1009.84 1009.41 1009.32 1008.77 1008.37 1007.66 1007.51 1006.91 1006.96 1007.03 1006.70 1006.63 1006.57 1006.54 1006.49 1006.51 1006.45 1005.73 1006.05 1005.43 1005.34 1005.22 1005.25 1004.93 1004.91 1004.87
1017.51 1017.01 1016.52 1016.17 1015.87 1015.60 1015.32 1015.15 1015.10 1015.07 1014.98 1014.96 1014.92 1014.17 1012.09 1009.25 1009.18 1009.32 1009.43 1009.12 1009.17 1008.87 1008.58 1008.43 1008.15 1007.81 1007.17 1007.06 1007.40 1007.06 1006.81 1006.21 1006.11 1005.95 1005.78 1005.75 1005.33 1005.09 1005.05 1005.09 1005.06 1004.81 1004.84 1004.88 1004.91
1017.37 1016.90 1016.43 1015.94 1015.59 1015.31 1015.07 1014.78 1014.67 1014.67 1014.72 1014.75 1014.67 1013.54 1010.22 1009.23 1009.31 1009.17 1009.09 1009.11 1009.24 1009.15 1008.64 1008.77 1008.61 1007.88 1007.48 1007.71 1007.49 1006.97 1006.63 1005.39 1004.61 1005.56 1005.53 1006.03 1004.15 1003.83 1004.61 1004.89 1004.72 1004.75 1004.82 1004.90 1004.75
1017.19 1016.77 1016.27 1015.83 1015.41 1015.04 1014.73 1014.49 1014.31 1014.34 1014.47 1014.45 1013.90 1012.61 1009.14 1009.78 1009.11 1008.63 1008.76 1008.35 1008.74 1008.98 1009.04 1009.05 1008.53 1007.82 1007.96 1007.34 1006.75 1006.37 1005.27 1004.77 1004.46 1005.41 1005.36 1005.41 1003.82 1004.21 1004.99 1004.95 1004.67 1004.57 1004.35 1004.35 1004.39
1016.93 1016.46 1016.07 1015.59 1015.15 1014.84 1014.51 1013.92 1013.82 1013.91 1013.94 1013.56 1012.89 1012.00 1009.07 1007.77 1007.82 1008.09 1008.50 1008.31 1008.31 1008.49 1008.74 1008.69 1008.05 1007.61 1007.19 1006.55 1005.19 1004.69 1005.00 1004.80 1004.84 1004.96 1005.27 1004.73 1004.17 1004.09 1004.09 1004.11 1004.08 1004.03 1004.06 1004.09 1004.11
1016.65 1016.15 1015.67 1015.23 1014.82 1014.53 1014.32 1013.60 1013.11 1012.33 1011.78 1009.71 1009.01 1008.53 1007.89 1007.69 1007.84 1007.82 1008.23 1008.23 1008.04 1008.02 1007.65 1007.85 1007.23 1006.25 1005.81 1005.98 1005.87 1005.98 1005.75 1005.19 1005.01 1005.26 1005.41 1004.71 1004.07 1003.71 1003.74 1003.65 1003.36 1003.51 1003.53 1003.64 1003.57
1016.31 1015.77 1015.32 1014.81 1014.28 1013.79 1013.45 1011.32 1009.63 1009.71 1008.83 1008.21 1008.32 1007.93 1007.89 1007.89 1007.15 1007.23 1007.81 1007.77 1007.65 1007.02 1007.06 1007.32 1006.41 1005.92 1006.06 1006.48 1006.71 1006.46 1005.87 1005.24 1005.08 1005.17 1005.23 1004.45 1003.67 1003.43 1003.35 1003.23 1003.09 1003.06 1003.00 1003.09 1003.08
1015.94 1015.36 1014.85 1014.33 1014.01 1013.50 1011.73 1010.36 1009.65 1009.59 1008.43 1007.55 1007.61 1007.37 1007.24 1007.66 1006.78 1006.49 1007.30 1006.98 1006.83 1006.61 1006.46 1006.09 1005.46 1006.31 1006.09 1006.41 1006.48 1006.01 1005.59 1005.17 1005.09 1004.95 1004.75 1004.51 1003.42 1002.85 1002.53 1002.54 1002.78 1002.80 1002.65 1002.67 1002.72
1015.45 1014.97 1014.44 1013.81 1013.76 1011.39 1010.29 1009.81 1009.95 1010.05 1008.48 1007.38 1007.08 1006.85 1007.11 1006.79 1006.61 1006.42 1006.67 1006.48 1006.45 1006.11 1006.13 1005.89 1005.67 1005.71 1005.94 1005.91 1005.89 1005.19 1005.16 1005.37 1005.29 1004.94 1003.73 1003.43 1002.16 1002.01 1001.83 1001.65 1001.86 1002.11 1001.95 1002.02 1002.30
1014.78 1014.39 1013.82 1013.89 1012.37 1010.45 1009.91 1009.79 1009.65 1009.89 1007.81 1006.88 1007.00 1007.20 1006.97 1006.44 1005.93 1006.09 1006.31 1006.37 1005.96 1006.05 1006.27 1005.25 1005.49 1005.57 1005.38 1005.13 1005.34 1005.16 1005.13 1005.41 1005.17 1004.65 1003.99 1003.20 1001.97 1001.04 1000.93 1001.01 1001.43 1001.53 1001.61 1001.91 1002.91
1014.12 1013.41 1012.80 1012.33 1012.20 1010.48 1010.19 1009.95 1009.69 1008.34 1007.23 1006.67 1006.96 1006.99 1006.99 1006.64 1006.38 1006.65 1006.59 1006.68 1006.38 1006.27 1006.31 1005.67 1005.44 1005.83 1005.05 1005.15 1005.40 1005.31 1005.34 1004.96 1004.63 1004.07 1002.85 1002.31 1001.45 1000.45 1000.17 1000.14 1000.29 1000.84 1001.61 1002.80 1003.62
1013.58 1012.93 1012.37 1011.14 1010.10 1010.27 1010.07 1009.35 1008.12 1007.05 1007.65 1007.62 1007.27 1006.92 1006.77 1006.75 1006.64 1006.67 1006.84 1006.96 1006.61 1006.27 1005.73 1005.25 1005.00 1005.03 1005.43 1005.10 1004.88 1005.18 1005.14 1003.96 1003.15 1002.28 1000.98 1000.97 1000.31 1000.03 1000.39 1000.59 1000.85 1001.12 1001.88 1003.28 1003.86
1013.29 1012.75 1012.24 1011.06 1010.51 1010.38 1009.55 1008.46 1007.45 1008.09 1007.99 1008.73 1008.53 1008.03 1007.90 1007.92 1007.91 1007.75 1007.30 1006.99 1006.85 1006.97 1006.43 1005.71 1005.00 1004.69 1004.76 1004.82 1004.41 1003.93 1004.08 1003.65 1002.73 1002.40 1001.40 1001.32 1000.09 999.88 1000.56 1001.35 1002.08 1002.69 1003.11 1003.59 1004.01
1012.58 1011.39 1010.19 1010.41 1010.43 1010.10 1008.73 1007.56 1007.54 1008.32 1009.03 1009.27 1009.47 1009.61 1008.95 1008.89 1008.77 1008.36 1008.14 1008.16 1008.03 1008.11 1008.00 1007.05 1006.09 1005.86 1005.97 1005.60 1005.51 1004.79 1004.47 1004.89 1004.85 1004.17 1002.47 1001.59 1000.30 999.80 1000.29 1001.18 1002.44 1002.99 1003.85 1004.09 1004.46
1012.40 1010.79 1010.20 1010.21 1010.11 1009.42 1008.02 1008.05 1008.58 1009.07 1009.40 1009.59 1009.77 1010.31 1009.99 1010.17 1010.32 1009.96 1009.77 1009.39 1009.37 1009.68 1010.03 1009.36 1008.50 1007.13 1006.37 1006.12 1005.96 1005.88 1005.92 1006.07 1005.80 1004.70 1002.98 1001.43 1000.39 1000.00 1000.90 1001.67 1002.79 1003.52 1004.02 1004.58 1004.66
1012.20 1009.98 1010.29 1010.12 1009.72 1008.48 1007.87 1008.43 1009.14 1009.69 1009.80 1009.90 1010.01 1010.36 1010.53 1010.50 1010.62 1010.47 1010.31 1009.85 1010.07 1010.31 1010.88 1010.69 1009.99 1007.83 1006.86 1006.36 1006.13 1006.21 1006.50 1006.89 1007.34 1006.61 1005.15 1003.25 1001.73 1001.88 1002.19 1002.85 1003.56 1004.13 1004.46 1004.68 1004.56
1011.84 1009.85 1010.49 1009.94 1008.74 1008.99 1008.82 1009.91 1010.53 1010.36 1010.39 1010.18 1010.45 1010.53 1010.84 1011.02 1011.05 1010.86 1010.67 1010.27 1010.71 1011.09 1011.01 1010.96 1010.88 1008.87 1007.29 1006.43 1006.27 1006.55 1006.57 1007.07 1007.67 1006.89 1006.11 1004.94 1003.04 1002.57 1003.14 1003.83 1004.14 1004.23 1004.45 1004.53 1004.63
1011.89 1011.09 1010.69 1010.02 1009.19 1009.66 1010.65 1010.72 1010.91 1010.96 1011.02 1010.81 1010.68 1011.19 1011.61 1011.62 1011.80 1011.25 1011.12 1011.08 1011.43 1011.67 1012.41 1012.57 1011.85 1009.95 1007.51 1007.01 1007.20 1007.32 1007.21 1007.32 1007.74 1008.68 1007.30 1006.35 1003.72 1004.21 1004.57 1004.35 1004.32 1004.43 1004.74 1004.86 1004.91
1012.52 1010.93 1011.16 1011.23 1011.84 1011.51 1011.47 1011.50 1011.45 1012.03 1011.87 1011.87 1011.63 1011.99 1012.14 1012.38 1012.47 1012.68 1012.02 1012.07 1012.23 1012.52 1013.41 1013.97 1012.61 1010.95 1009.17 1007.91 1008.17 1008.35 1008.19 1008.38 1008.65 1008.57 1007.23 1005.68 1004.41 1003.92 1003.92 1003.90 1004.03 1004.56 1004.76 1005.01 1005.04
1013.32 1013.24 1013.76 1012.15 1012.35 1012.64 1012.80 1012.80 1012.37 1012.35 1012.54 1012.59 1012.26 1012.64 1012.89 1012.89 1012.77 1012.64 1012.59 1012.45 1012.67 1012.75 1013.29 1014.08 1013.20 1011.74 1010.27 1009.46 1008.73 1008.18 1008.01 1007.73 1007.45 1007.86 1007.19 1005.76 1004.81 1004.47 1004.06 1003.89 1004.21 1004.79 1004.99 1004.94 1004.86
1013.71 1013.69 1013.74 1013.65 1013.67 1013.19 1013.40 1013.27 1013.24 1013.43 1013.44 1012.83 1013.02 1013.06 1013.84 1013.95 1013.68 1013.04 1012.88 1012.69 1012.74 1012.59 1012.86 1013.86 1012.85 1011.68 1010.30 1009.05 1008.26 1007.46 1006.80 1006.46 1006.09 1005.73 1005.25 1005.01 1004.20 1004.04 1003.96 1004.56 1004.60 1004.51 1004.58 1004.70 1004.73
1015.55 1015.39 1014.34 1014.25 1013.73 1013.52 1013.55 1013.98 1013.97 1014.21 1013.85 1013.83 1013.81 1014.02 1013.59 1013.42 1013.20 1012.86 1012.59 1012.39 1012.41 1012.93 1013.19 1013.36 1012.47 1011.98 1009.80 1008.50 1007.75 1006.41 1004.80 1004.84 1004.65 1004.45 1004.39 1004.05 1003.65 1003.84 1004.04 1004.35 1004.45 1004.61 1004.76 1004.56 1004.29
Thickness
5602 5605 5608 5610 5613 5617 5621 5626 5629 5633 5637 5641 5645 5650 5654 5660 5667 5678 5692 5707 5712 5711 5714 5719 5723 5727 5730 5732 5737 5740 5726 5726 5732 5732 5745 5756 5751 5759 5765 5761 5770 5780 5786 5795 5804
5606 5609 5613 5616 5618 5621 5624 5627 5630 5633 5637 5640 5645 5649 5654 5660 5673 5686 5706 5704 5705 5707 5711 5713 5714 5720 5721 5724 5727 5724 5724 5734 5744 5741 5737 5743 5739 5745 5744 5756 5759 5766 5783 5794 5798
5611 5612 5615 5618 5621 5624 5627 5629 5633 5637 5641 5643 5645 5649 5653 5658 5676 5706 5705 5702 5703 5705 5713 5716 5719 5718 5716 5722 5723 5724 5722 5738 5728 5733 5737 5736 5734 5744 5735 5740 5756 5751 5765 5778 5784
5612 5615 5617 5619 5621 5624 5627 5630 5632 5634 5636 5639 5642 5646 5651 5662 5685 5704 5700 5698 5697 5703 5708 5709 5710 5706 5710 5706 5721 5709 5724 5728 5728 5731 5728 5726 5737 5733 5739 5739 5754 5755 5757 5764 5770
5612 5615 5618 5620 5622 5624 5626 5628 5630 5632 5635 5638 5642 5645 5655 5670 5689 5698 5696 5695 5697 5702 5702 5704 5703 5709 5704 5712 5710 5706 5720 5720 5722 5724 5727 5729 5725 5728 5732 5746 5753 5755 5752 5753 5758
5613 5615 5618 5621 5623 5625 5628 5630 5632 5634 5635 5638 5640 5643 5658 5670 5694 5694 5695 5695 5699 5699 5701 5706 5707 5711 5710 5707 5704 5715 5714 5715 5719 5719 5722 5716 5725 5725 5735 5744 5745 5746 5750 5752 5754
5611 5615 5618 5620 5623 5626 5628 5630 5632 5634 5636 5637 5638 5645 5659 5680 5688 5689 5690 5693 5696 5698 5694 5702 5706 5701 5708 5698 5706 5705 5696 5711 5713 5718 5717 5724 5715 5718 5735 5738 5736 5742 5744 5746 5748
5608 5612 5617 5620 5623 5625 5627 5631 5632 5633 5634 5635 5637 5646 5666 5683 5684 5687 5690 5688 5691 5694 5697 5698 5699 5698 5696 5698 5693 5691 5695 5695 5720 5712 5717 5708 5708 5731 5735 5729 5729 5733 5735 5737 5742
5606 5608 5613 5617 5621 5625 5627 5629 5632 5632 5632 5633 5639 5647 5669 5677 5678 5687 5688 5685 5686 5687 5689 5691 5691 5689 5685 5681 5682 5687 5687 5695 5704 5711 5708 5704 5709 5721 5722 5719 5719 5725 5732 5734 5736
5607 5608 5610 5613 5618 5621 5625 5631 5632 5632 5633 5636 5641 5642 5668 5676 5683 5684 5686 5686 5680 5680 5675 5676 5679 5674 5679 5678 5675 5686 5685 5691 5688 5702 5698 5698 5700 5713 5720 5718 5717 5721 5724 5726 5727
5605 5609 5611 5613 5615 5619 5621 5631 5638 5640 5643 5664 5669 5667 5671 5679 5681 5677 5678 5674 5676 5672 5663 5671 5666 5668 5680 5682 5683 5677 5675 5677 5689 5693 5680 5686 5691 5701 5711 5711 5715 5715 5716 5719 5723
5602 5607 5610 5613 5616 5620 5624 5641 5654 5653 5652 5668 5664 5666 5670 5671 5666 5672 5677 5664 5662 5659 5668 5660 5659 5678 5680 5673 5664 5665 5666 5672 5682 5684 5675 5683 5686 5698 5705 5707 5710 5711 5714 5715 5717
5600 5604 5607 5612 5615 5620 5633 5640 5647 5649 5647 5658 5660 5659 5663 5663 5662 5667 5668 5667 5660 5658 5661 5658 5672 5668 5669 5661 5655 5662 5663 5666 5665 5675 5677 5675 5675 5689 5704 5708 5706 5710 5715 5713 5711
5597 5600 5603 5610 5614 5632 5636 5642 5639 5637 5631 5643 5650 5655 5656 5660 5650 5668 5669 5663 5657 5653 5656 5658 5670 5663 5659 5655 5658 5656 5672 5664 5661 5660 5657 5680 5655 5683 5696 5695 5701 5702 5707 5709 5707
5596 5598 5603 5603 5618 5630 5634 5636 5636 5630 5619 5643 5640 5651 5650 5649 5656 5653 5664 5655 5646 5646 5648 5653 5652 5650 5650 5655 5659 5656 5664 5656 5655 5653 5654 5662 5657 5676 5694 5684 5690 5695 5699 5697 5691
5598 5601 5605 5609 5609 5624 5626 5629 5628 5625 5608 5629 5635 5631 5629 5638 5640 5641 5641 5649 5650 5640 5642 5648 5660 5649 5655 5654 5651 5657 5650 5652 5654 5651 5637 5660 5662 5666 5677 5684 5695 5694 5689 5676 5671
5601 5604 5606 5611 5619 5618 5621 5624 5621 5618 5627 5614 5619 5627 5626 5622 5626 5628 5623 5620 5620 5616 5627 5643 5644 5653 5648 5638 5650 5642 5632 5627 5635 5643 5646 5673 5659 5662 5671 5678 5678 5681 5675 5663 5661
5602 5604 5607 5611 5613 5613 5617 5616 5604 5606 5610 5609 5607 5613 5605 5610 5608 5609 5613 5613 5626 5619 5617 5616 5619 5639 5646 5638 5637 5645 5640 5629 5616 5622 5639 5661 5642 5657 5660 5661 5658 5652 5655 5653 5649
5608 5614 5620 5615 5613 5615 5618 5607 5607 5603 5600 5594 5593 5582 5594 5601 5604 5605 5604 5602 5608 5609 5597 5604 5612 5628 5625 5631 5630 5630 5624 5635 5608 5622 5622 5637 5653 5663 5662 5648 5637 5637 5630 5629 5629
5608 5616 5617 5616 5616 5618 5619 5600 5602 5604 5600 5596 5582 5582 5578 5581 5578 5583 5580 5592 5586 5588 5586 5584 5570 5607 5615 5618 5620 5612 5621 5594 5605 5583 5596 5632 5637 5636 5630 5625 5617 5616 5613 5611 5612
5608 5619 5614 5616 5618 5621 5612 5607 5602 5601 5600 5592 5587 5583 5582 5581 5581 5578 5576 5588 5585 5580 5576 5572 5567 5591 5602 5597 5593 5597 5588 5590 5584 5590 5577 5594 5619 5626 5618 5609 5602 5599 5597 5596 5599
5607 5614 5610 5613 5614 5610 5607 5595 5585 5591 5594 5593 5589 5586 5579 5578 5573 5573 5571 5577 5578 5571 5562 5566 5553 5564 5584 5603 5604 5595 5591 5587 5559 5578 5588 5582 5590 5624 5606 5597 5594 5591 5589 5589 5587
5601 5600 5606 5608 5603 5598 5590 5588 5586 5583 5580 5582 5582 5578 5574 5569 5558 5569 5568 5570 5564 5557 5542 5543 5536 5550 5573 5584 5582 5572 5579 5580 5574 5545 5554 5560 5590 5588 5582 5584 5582 5578 5575 5573 5571
5594 5599 5594 5591 5581 5580 5577 5576 5576 5571 5569 5569 5569 5566 5560 5553 5553 5537 5549 5549 5548 5542 5528 5517 5533 5544 5550 5564 5558 5547 5555 5557 5548 5533 5554 5564 5576 5584 5581 5574 5572 5567 5565 5559 5556
5582 5573 5565 5579 5573 5567 5563 5560 5563 5561 5561 5559 5557 5551 5545 5540 5540 5535 5534 5533 5530 5530 5522 5507 5509 5528 5538 5541 5544 5544 5545 5551 5547 5536 5531 5555 5557 5564 5567 5567 5562 5555 5551 5549 5548
5574 5570 5568 5562 5559 5562 5550 5554 5552 5548 5545 5549 5543 5542 5527 5518 5523 5525 5523 5522 5516 5519 5515 5500 5512 5520 5528 5541 5540 5540 5550 5552 5555 5556 5557 5554 5557 5563 5561 5555 5550 5550 5547 5541 5539
5552 5551 5558 5545 5557 5557 5555 5546 5543 5539 5541 5537 5532 5524 5525 5525 5525 5523 5521 5518 5514 5504 5500 5497 5514 5508 5526 5540 5538 5541 5560 5559 5559 5561 5558 5551 5560 5560 5552 5545 5544 5542 5537 5534 5535